This is the latest recevied weather packets stored in our database for station/object W2JGA. If no packets are shown the sender has not sent any weather packets the latest 10 day(s).
| Time | Temp. | Humidity | Pressure | Rain* | Wind** | Luminosity | Snow |
|---|---|---|---|---|---|---|---|
| 1778013441 | 23.33° C | 42% | 1013.6 hPa | 0 mm | - | 749 W/m² | - |
| 1778013138 | 23.33° C | 41% | 1013.6 hPa | 0 mm | - | 727 W/m² | - |
| 1778012833 | 23.89° C | 41% | 1013.6 hPa | 0 mm | - | 747 W/m² | - |
| 1778012530 | 23.89° C | 42% | 1013.6 hPa | 0 mm | - | 766 W/m² | - |
| 1778012226 | 23.89° C | 42% | 1013.6 hPa | 0 mm | - | 776 W/m² | - |
| 1778011924 | 23.89° C | 41% | 1013.9 hPa | 0 mm | - | 789 W/m² | - |
| 1778011622 | 23.89° C | 41% | 1013.6 hPa | 0 mm | - | 829 W/m² | - |
| 1778011319 | 23.33° C | 43% | 1013.6 hPa | 0 mm | - | 829 W/m² | - |
| 1778011014 | 22.78° C | 44% | 1013.9 hPa | 0 mm | - | 872 W/m² | - |
| 1778010712 | 23.33° C | 45% | 1013.9 hPa | 0 mm | - | 246 W/m² | - |
| 1778010409 | 23.33° C | 45% | 1013.9 hPa | 0 mm | - | 921 W/m² | - |
| 1778010105 | 23.33° C | 46% | 1013.9 hPa | 0 mm | - | 270 W/m² | - |
| 1778009802 | 23.33° C | 48% | 1013.9 hPa | 0 mm | - | 223 W/m² | - |
| 1778009499 | 22.78° C | 48% | 1013.9 hPa | 0 mm | - | 851 W/m² | - |
| 1778009198 | 22.22° C | 51% | 1013.9 hPa | 0 mm | - | 725 W/m² | - |
| 1778008895 | 22.78° C | 51% | 1013.9 hPa | 0 mm | - | 239 W/m² | - |
| 1778008593 | 22.22° C | 52% | 1014.3 hPa | 0 mm | - | 747 W/m² | - |
| 1778008291 | 22.22° C | 54% | 1014.3 hPa | 0 mm | - | 928 W/m² | - |
| 1778007986 | 21.67° C | 57% | 1014.3 hPa | 0 mm | - | 966 W/m² | - |
| 1778007681 | 22.22° C | 55% | 1014.3 hPa | 0 mm | - | 209 W/m² | - |
| 1778007379 | 22.22° C | 54% | 1014.3 hPa | 0 mm | - | 345 W/m² | - |
| 1778007075 | 21.67° C | 55% | 1014.7 hPa | 0 mm | - | 862 W/m² | - |
| 1778006771 | 21.67° C | 56% | 1014.7 hPa | 0 mm | - | 284 W/m² | - |
| 1778006468 | 22.22° C | 55% | 1014.7 hPa | 0 mm | - | 833 W/m² | - |
| 1778006165 | 21.11° C | 57% | 1014.7 hPa | 0 mm | - | 876 W/m² | - |
* Rain latest hour (hover to see other rain measurements)
** Current wind speed in m/s (hover to see current wind gust speed)